Location: São Paulo
(23.5507°S, 46.6334°W)
Time: 06:59:09
(UTC-03:00)

Vanguard 3 - Pass Details

Date: 22 February 2026
Orbit: 507 x 3205 km, 33.4° (Epoch: 7 March)

Event Time Altitude Azimuth Distance (km) Brightness Sun altitude
Exits shadow 02:20:28 44° 120° (ESE) 1,919 9.1 -45.2°
Drops below altitude 10° 02:28:15 10° 115° (ESE) 4,433 11.4 -44.0°
Sets 02:32:50 0° 114° (ESE) 5,880 12.3 -43.2°
